| time (UTC) | temp F | wind direction | speed MPH | gust MPH | rain 1hr in | rain 24hr in | rain mn in | humidity % | barometer mb |
| 20260507084548 | 28 | 300 | 0.0 | 0.0 | 0.00 | 0.00 | 0.00 | 80 | 1047.9 |
| 20260507083056 | 29 | 300 | 0.0 | 0.0 | 0.00 | 0.00 | 0.00 | 76 | 1048.0 |
| 20260507081538 | 30 | 300 | 0.0 | 0.0 | 0.00 | 0.00 | 0.00 | 71 | 1048.3 |
| 20260507080032 | 31 | 300 | 0.0 | 0.0 | 0.00 | 0.00 | 0.00 | 67 | 1048.3 |
| 20260507074530 | 35 | 317 | 0.0 | 0.0 | 0.00 | 0.00 | 0.00 | 61 | 1048.3 |
| 20260507073025 | 35 | 335 | 0.0 | 4.0 | 0.00 | 0.00 | 0.00 | 51 | 1048.3 |
| 20260507071525 | 35 | 10 | 0.0 | 4.0 | 0.00 | 0.00 | 0.00 | 52 | 1048.5 |
| 20260507070032 | 35 | 348 | 0.0 | 9.0 | 0.00 | 0.00 | 0.00 | 53 | 1048.7 |
| 20260507064533 | 35 | 5 | 0.0 | 5.0 | 0.00 | 0.00 | 0.00 | 52 | 1048.4 |
| 20260507063024 | 35 | 9 | 0.0 | 5.0 | 0.00 | 0.00 | 0.00 | 55 | 1048.4 |
| 20260507061517 | 35 | 19 | 0.0 | 5.0 | 0.00 | 0.00 | 0.00 | 55 | 1048.4 |
| 20260507060019 | 35 | 10 | 1.0 | 8.0 | 0.00 | 0.00 | 0.00 | 54 | 1048.3 |
| 20260507054512 | 35 | 11 | 2.0 | 13.0 | 0.00 | 0.00 | 0.00 | 55 | 1048.4 |
| 20260507053010 | 35 | 15 | 0.0 | 7.0 | 0.00 | 0.00 | 0.00 | 57 | 1048.6 |
| 20260507051510 | 35 | 18 | 2.0 | 7.0 | 0.00 | 0.00 | 0.00 | 56 | 1048.6 |
| 20260507050009 | 35 | 5 | 0.0 | 6.0 | 0.00 | 0.00 | 0.00 | 59 | 1048.4 |
| 20260507044507 | 35 | 19 | 2.0 | 12.0 | 0.00 | 0.00 | 0.00 | 58 | 1048.4 |
| 20260507043006 | 35 | 25 | 1.0 | 9.0 | 0.00 | 0.00 | 0.00 | 60 | 1048.2 |
| 20260507041510 | 34 | 13 | 1.0 | 13.0 | 0.00 | 0.00 | 0.00 | 64 | 1048.2 |
| 20260507040001 | 33 | 313 | 0.0 | 9.0 | 0.00 | 0.00 | 0.00 | 70 | 1048.1 |
| 20260507034559 | 31 | 5 | 0.0 | 6.0 | 0.00 | 0.00 | 0.00 | 80 | 1048.0 |
| 20260507033058 | 29 | 267 | 0.0 | 3.0 | 0.00 | 0.00 | 0.00 | 91 | 1048.1 |
| 20260507031558 | 29 | 198 | 0.0 | 0.0 | 0.00 | 0.00 | 0.00 | 91 | 1048.0 |
| 20260507030059 | 30 | 198 | 0.0 | 0.0 | 0.00 | 0.00 | 0.00 | 91 | 1047.6 |
| 20260507024618 | 30 | 198 | 0.0 | 0.0 | 0.00 | 0.00 | 0.00 | 91 | 1047.5 |
| 20260507023056 | 31 | 198 | 0.0 | 0.0 | 0.00 | 0.00 | 0.00 | 91 | 1047.3 |
| 20260507021555 | 31 | 198 | 0.0 | 0.0 | 0.00 | 0.00 | 0.00 | 91 | 1047.1 |
| 20260507020108 | 31 | 198 | 0.0 | 0.0 | 0.00 | 0.00 | 0.00 | 91 | 1047.2 |
| 20260507014605 | 32 | 198 | 0.0 | 0.0 | 0.00 | 0.00 | 0.00 | 91 | 1047.1 |
| 20260507013055 | 32 | 198 | 0.0 | 0.0 | 0.00 | 0.00 | 0.00 | 91 | 1047.1 |
| 20260507011554 | 33 | 198 | 0.0 | 0.0 | 0.00 | 0.00 | 0.00 | 91 | 1047.1 |
| 20260507010053 | 33 | 198 | 0.0 | 0.0 | 0.00 | 0.00 | 0.00 | 91 | 1047.0 |
| 20260507004553 | 33 | 198 | 0.0 | 0.0 | 0.00 | 0.00 | 0.00 | 90 | 1047.0 |
| 20260507003052 | 33 | 198 | 0.0 | 0.0 | 0.00 | 0.00 | 0.00 | 90 | 1047.1 |
| 20260507001557 | 33 | 198 | 0.0 | 0.0 | 0.00 | 0.00 | 0.00 | 90 | 1046.9 |
| 20260507000051 | 33 | 198 | 0.0 | 0.0 | 0.00 | 0.00 | 0.00 | 90 | 1047.0 |
| 20260506234556 | 34 | 198 | 0.0 | 0.0 | 0.00 | 0.00 | 0.00 | 89 | 1046.9 |
| 20260506233049 | 34 | 198 | 0.0 | 0.0 | 0.00 | 0.00 | 0.00 | 89 | 1046.9 |
| 20260506231556 | 34 | 198 | 0.0 | 0.0 | 0.00 | 0.00 | 0.00 | 88 | 1046.8 |
| 20260506230055 | 33 | 198 | 0.0 | 0.0 | 0.00 | 0.00 | 0.00 | 89 | 1046.9 |
| 20260506224546 | 33 | 198 | 0.0 | 0.0 | 0.00 | 0.00 | 0.00 | 89 | 1046.9 |
| 20260506223053 | 32 | 198 | 0.0 | 3.0 | 0.00 | 0.00 | 0.00 | 89 | 1047.1 |
| 20260506221544 | 33 | 195 | 0.0 | 2.0 | 0.00 | 0.00 | 0.00 | 88 | 1047.2 |
| 20260506220043 | 33 | 195 | 0.0 | 1.0 | 0.00 | 0.00 | 0.00 | 85 | 1047.3 |
| 20260506214544 | 33 | 195 | 0.0 | 0.0 | 0.00 | 0.00 | 0.00 | 84 | 1047.3 |
| 20260506213059 | 32 | 195 | 0.0 | 0.0 | 0.00 | 0.00 | 0.00 | 86 | 1047.5 |
| 20260506211549 | 31 | 195 | 0.0 | 0.0 | 0.00 | 0.00 | 0.00 | 87 | 1047.8 |
| 20260506210036 | 31 | 195 | 0.0 | 0.0 | 0.00 | 0.00 | 0.00 | 88 | 1047.9 |
| 20260506204536 | 30 | 195 | 0.0 | 1.0 | 0.00 | 0.00 | 0.00 | 88 | 1048.1 |
| 20260506203032 | 30 | 195 | 0.0 | 0.0 | 0.00 | 0.00 | 0.00 | 89 | 1048.2 |
| 20260506201535 | 29 | 195 | 0.0 | 2.0 | 0.00 | 0.00 | 0.00 | 89 | 1048.4 |
| 20260506200029 | 29 | 195 | 0.0 | 0.0 | 0.00 | 0.00 | 0.00 | 89 | 1048.4 |
| 20260506194531 | 29 | 195 | 0.0 | 2.0 | 0.00 | 0.00 | 0.00 | 89 | 1048.5 |
| 20260506193027 | 29 | 195 | 0.0 | 3.0 | 0.00 | 0.00 | 0.00 | 89 | 1048.5 |
| 20260506191527 | 28 | 195 | 0.0 | 1.0 | 0.00 | 0.00 | 0.00 | 89 | 1048.6 |
| 20260506190026 | 28 | 195 | 0.0 | 4.0 | 0.00 | 0.00 | 0.00 | 90 | 1048.7 |
| 20260506184526 | 29 | 195 | 0.0 | 4.0 | 0.00 | 0.00 | 0.00 | 89 | 1048.8 |
| 20260506183031 | 29 | 195 | 0.0 | 3.0 | 0.00 | 0.00 | 0.00 | 89 | 1048.9 |
| 20260506181522 | 29 | 195 | 0.0 | 0.0 | 0.00 | 0.00 | 0.00 | 91 | 1049.0 |
| 20260506180019 | 28 | 195 | 0.0 | 0.0 | 0.00 | 0.00 | 0.00 | 91 | 1049.0 |
| 20260506174516 | 27 | 196 | 0.0 | 0.0 | 0.00 | 0.00 | 0.00 | 91 | 1048.8 |
| 20260506173013 | 26 | 196 | 0.0 | 0.0 | 0.00 | 0.00 | 0.00 | 92 | 1049.0 |
| 20260506171518 | 26 | 196 | 0.0 | 0.0 | 0.00 | 0.00 | 0.00 | 91 | 1048.7 |
| 20260506170011 | 26 | 196 | 0.0 | 0.0 | 0.00 | 0.00 | 0.00 | 91 | 1048.6 |
| 20260506164508 | 26 | 196 | 0.0 | 0.0 | 0.00 | 0.00 | 0.00 | 91 | 1048.1 |
| 20260506163008 | 26 | 197 | 0.0 | 0.0 | 0.00 | 0.00 | 0.00 | 92 | 1047.7 |
| 20260506161503 | 26 | 197 | 0.0 | 0.0 | 0.00 | 0.00 | 0.00 | 92 | 1047.4 |
| 20260506160003 | 25 | 197 | 0.0 | 0.0 | 0.00 | 0.00 | 0.00 | 92 | 1047.3 |
| 20260506154502 | 25 | 197 | 0.0 | 0.0 | 0.00 | 0.00 | 0.00 | 92 | 1047.1 |
| 20260506153104 | 25 | 197 | 0.0 | 0.0 | 0.00 | 0.00 | 0.00 | 92 | 1047.1 |
| 20260506151602 | 26 | 197 | 0.0 | 0.0 | 0.00 | 0.00 | 0.00 | 92 | 1047.1 |
| 20260506150100 | 26 | 197 | 0.0 | 0.0 | 0.00 | 0.00 | 0.00 | 92 | 1046.9 |
| 20260506144606 | 25 | 197 | 0.0 | 0.0 | 0.00 | 0.00 | 0.00 | 92 | 1046.9 |
| 20260506143102 | 25 | 197 | 0.0 | 0.0 | 0.00 | 0.00 | 0.00 | 92 | 1046.8 |
| 20260506141554 | 25 | 197 | 0.0 | 0.0 | 0.00 | 0.00 | 0.00 | 92 | 1046.5 |
| 20260506140054 | 25 | 197 | 0.0 | 0.0 | 0.00 | 0.00 | 0.00 | 92 | 1046.6 |
| 20260506134553 | 25 | 197 | 0.0 | 0.0 | 0.00 | 0.00 | 0.00 | 92 | 1046.3 |
| 20260506133052 | 25 | 197 | 0.0 | 0.0 | 0.00 | 0.00 | 0.00 | 92 | 1046.3 |
| 20260506131549 | 25 | 197 | 0.0 | 0.0 | 0.00 | 0.00 | 0.00 | 92 | 1046.0 |
| 20260506130057 | 25 | 197 | 0.0 | 0.0 | 0.00 | 0.00 | 0.00 | 92 | 1045.8 |
| 20260506124548 | 25 | 197 | 0.0 | 0.0 | 0.00 | 0.00 | 0.00 | 92 | 1045.3 |
| 20260506123042 | 25 | 197 | 0.0 | 0.0 | 0.00 | 0.00 | 0.00 | 92 | 1045.0 |
| 20260506121539 | 25 | 197 | 0.0 | 0.0 | 0.00 | 0.00 | 0.00 | 92 | 1044.8 |
| 20260506120043 | 25 | 197 | 0.0 | 0.0 | 0.00 | 0.00 | 0.00 | 92 | 1044.5 |
| 20260506114535 | 25 | 197 | 0.0 | 0.0 | 0.00 | 0.00 | 0.00 | 92 | 1044.5 |
| 20260506113033 | 25 | 197 | 0.0 | 0.0 | 0.00 | 0.00 | 0.00 | 92 | 1044.3 |
| 20260506111530 | 25 | 197 | 0.0 | 0.0 | 0.00 | 0.00 | 0.00 | 92 | 1044.2 |
| 20260506110031 | 25 | 197 | 0.0 | 0.0 | 0.00 | 0.00 | 0.00 | 92 | 1043.6 |
| 20260506104526 | 25 | 197 | 0.0 | 0.0 | 0.00 | 0.00 | 0.00 | 92 | 1043.9 |
| 20260506103025 | 25 | 197 | 0.0 | 0.0 | 0.00 | 0.00 | 0.00 | 92 | 1043.9 |
| 20260506101524 | 25 | 197 | 0.0 | 0.0 | 0.00 | 0.00 | 0.00 | 92 | 1043.7 |
| 20260506100023 | 25 | 197 | 0.0 | 0.0 | 0.00 | 0.00 | 0.00 | 92 | 1043.6 |
| 20260506094521 | 25 | 197 | 0.0 | 0.0 | 0.00 | 0.00 | 0.00 | 92 | 1043.4 |
| 20260506093019 | 26 | 197 | 0.0 | 0.0 | 0.00 | 0.00 | 0.00 | 92 | 1043.1 |
| 20260506091518 | 26 | 197 | 0.0 | 0.0 | 0.00 | 0.00 | 0.00 | 92 | 1043.1 |
| 20260506090019 | 26 | 197 | 0.0 | 0.0 | 0.00 | 0.00 | 0.00 | 92 | 1042.7 |